EXS9BY EGCC-LYTV

Flight info

Callsign EXS9BY
Flight time N/A
Altitude 35000
Route SANBA N859 HON L15 FINMA DCT CHT DCT ITVIP DCT KONAN DCT KOK DCT SISGA DCT RITAX DCT KRH DCT UTABA DCT BEMKI DCT ELMEM DCT DIRAB DCT VESAL DCT BABAG DCT PEVAL DCT NERRA/N0397F190 L607 BALHA L187 TAZ
Aircraft B738/M-SDE2E3FGHIRWXY/LB1

Departure

Time 2026-05-07 10:15
Airport Manchester Airport (EGCC)

Arrival

Time N/A
Airport Tivat Airport (LYTV)
Time Latitude Longitude Altitude Speed Heading
2026-05-07 09:46 53.36407 -2.27665 246 ft 0 kts 45°
2026-05-07 09:55 53.36405 -2.27668 246 ft 2 kts 45°
2026-05-07 09:55 53.36394 -2.27687 246 ft 2 kts 45°
2026-05-07 09:56 53.36382 -2.27706 246 ft 2 kts 45°
2026-05-07 09:56 53.36372 -2.27720 246 ft 2 kts 29°
2026-05-07 09:56 53.36360 -2.27728 246 ft 2 kts
2026-05-07 09:56 53.36348 -2.27725 246 ft 2 kts 333°
2026-05-07 09:57 53.36338 -2.27713 246 ft 2 kts 301°
2026-05-07 09:57 53.36335 -2.27704 246 ft 0 kts 285°
2026-05-07 09:59 53.36335 -2.27706 246 ft 1 kts 284°
2026-05-07 09:59 53.36340 -2.27737 246 ft 4 kts 283°
2026-05-07 09:59 53.36347 -2.27782 246 ft 4 kts 292°
2026-05-07 10:00 53.36365 -2.27819 246 ft 4 kts 311°
2026-05-07 10:00 53.36383 -2.27854 246 ft 4 kts 310°
2026-05-07 10:00 53.36391 -2.27897 246 ft 4 kts 268°
2026-05-07 10:00 53.36381 -2.27940 246 ft 4 kts 241°
2026-05-07 10:01 53.36364 -2.27976 246 ft 4 kts 227°
2026-05-07 10:01 53.36344 -2.28010 246 ft 5 kts 224°
2026-05-07 10:01 53.36315 -2.28046 246 ft 6 kts 206°
2026-05-07 10:01 53.36272 -2.28064 246 ft 7 kts 191°
2026-05-07 10:02 53.36265 -2.28068 246 ft 0 kts 195°
2026-05-07 10:02 53.36260 -2.28070 246 ft 1 kts 195°
2026-05-07 10:02 53.36251 -2.28074 246 ft 2 kts 195°
2026-05-07 10:02 53.36222 -2.28077 246 ft 6 kts 169°
2026-05-07 10:03 53.36182 -2.28022 246 ft 8 kts 134°
2026-05-07 10:03 53.36142 -2.27954 246 ft 8 kts 135°
2026-05-07 10:03 53.36113 -2.27906 246 ft 4 kts 135°
2026-05-07 10:03 53.36090 -2.27876 246 ft 4 kts 152°
2026-05-07 10:04 53.36062 -2.27870 246 ft 4 kts 188°
2026-05-07 10:04 53.36025 -2.27886 246 ft 7 kts 183°
2026-05-07 10:04 53.35974 -2.27857 246 ft 9 kts 158°
2026-05-07 10:04 53.35903 -2.27842 246 ft 12 kts 182°
2026-05-07 10:05 53.35832 -2.27782 246 ft 12 kts 127°
2026-05-07 10:05 53.35776 -2.27678 246 ft 12 kts 141°
2026-05-07 10:05 53.35702 -2.27623 246 ft 12 kts 157°
2026-05-07 10:05 53.35638 -2.27547 247 ft 11 kts 141°
2026-05-07 10:06 53.35587 -2.27479 253 ft 6 kts 141°
2026-05-07 10:06 53.35579 -2.27467 254 ft 0 kts 141°
2026-05-07 10:11 53.35567 -2.27451 256 ft 6 kts 141°
2026-05-07 10:11 53.35513 -2.27377 260 ft 13 kts 141°
2026-05-07 10:11 53.35440 -2.27278 260 ft 14 kts 141°
2026-05-07 10:11 53.35349 -2.27190 256 ft 16 kts 173°
2026-05-07 10:12 53.35225 -2.27224 246 ft 13 kts 191°
2026-05-07 10:12 53.35160 -2.27246 243 ft 0 kts 191°
2026-05-07 10:13 53.35136 -2.27254 242 ft 8 kts 192°
2026-05-07 10:13 53.35064 -2.27279 239 ft 10 kts 192°
2026-05-07 10:13 53.35010 -2.27319 238 ft 7 kts 220°
2026-05-07 10:14 53.34986 -2.27368 238 ft 7 kts 231°
2026-05-07 10:14 53.34829 -2.27692 237 ft 72 kts 231°
2026-05-07 10:14 53.34367 -2.28642 213 ft 136 kts 231°
2026-05-07 10:14 53.33676 -2.29996 513 ft 163 kts 227°
2026-05-07 10:15 53.32889 -2.31529 1079 ft 181 kts 226°
2026-05-07 10:15 53.32164 -2.33172 1987 ft 178 kts 243°
2026-05-07 10:15 53.32078 -2.35359 2473 ft 207 kts 277°
2026-05-07 10:15 53.32379 -2.37810 2732 ft 228 kts 278°
2026-05-07 10:16 53.32635 -2.40495 3075 ft 242 kts 265°
2026-05-07 10:16 53.32066 -2.43130 3493 ft 248 kts 229°
2026-05-07 10:16 53.30690 -2.44782 4376 ft 245 kts 200°
2026-05-07 10:16 53.28996 -2.45260 4857 ft 248 kts 183°
2026-05-07 10:17 53.27253 -2.45122 4963 ft 255 kts 166°
2026-05-07 10:17 53.25645 -2.43852 5049 ft 258 kts 155°
2026-05-07 10:17 53.24020 -2.42547 5006 ft 259 kts 157°
2026-05-07 10:17 53.22425 -2.41178 4982 ft 257 kts 154°
2026-05-07 10:18 53.20874 -2.39729 4997 ft 255 kts 153°
2026-05-07 10:18 53.19339 -2.38272 5147 ft 260 kts 153°
2026-05-07 10:18 53.17736 -2.36802 5887 ft 265 kts 154°
2026-05-07 10:18 53.16096 -2.35339 6672 ft 269 kts 154°
2026-05-07 10:19 53.14438 -2.33880 7486 ft 270 kts 154°
2026-05-07 10:19 53.12776 -2.32421 8310 ft 271 kts 154°
2026-05-07 10:19 53.11101 -2.30957 9137 ft 273 kts 155°
2026-05-07 10:19 53.09412 -2.29489 9933 ft 276 kts 154°
2026-05-07 10:20 53.07692 -2.27992 10469 ft 287 kts 154°
2026-05-07 10:20 53.05913 -2.26193 10632 ft 312 kts 148°
2026-05-07 10:20 53.04072 -2.24085 10796 ft 334 kts 147°
2026-05-07 10:20 53.02106 -2.21773 10983 ft 354 kts 147°